Location: Fuglau
(48.6333°N, 15.5500°E)
Time: 08:48:57
(UTC+00:00)

Cosmos 1066 Rocket - Pass Details

Date: 27 February 2020
Orbit: 799 x 894 km, 81.2° (Epoch: 31 March)

Event Time Altitude Azimuth Distance (km) Brightness Sun altitude
Rises 19:34:24 0° 347° (NNW) 3,479 7.9 -29.5°
Reaches altitude 10° 19:36:50 10° 346° (NNW) 2,547 7.1 -29.9°
Enters shadow 19:42:01 71° 324° (NW) 943 4.4 -30.7°
